Location: Unspecified
(51.5147°N, 7.4673°E)
Time: 18:02:43
(UTC+01:00)

Vanguard 1 - Pass Details

Date: 18 February 2026
Orbit: 653 x 3818 km, 34.2° (Epoch: 5 March)

Event Time Altitude Azimuth Distance (km) Brightness Sun altitude
Rises 23:22:20 0° 273° (W) 7,318 14.8 -46.6°
Reaches altitude 10° 23:31:24 10° 253° (WSW) 6,731 14.3 -47.2°
Maximum altitude 23:39:56 14° 230° (SW) 6,590 14.1 -47.8°
Enters shadow 23:44:09 13° 219° (SW) 6,667 14.0 -48.0°
